User: anonymous   Login
Location: Unspecified
(0.0000°N, 0.0000°E)
Time: 17:05:11
(UTC+00:00)
Language:

Tiangong 2 - Orbit

View from above orbital plane
View from above orbital plane
View from above satellite
View from above satellite

Ground track
Ground track

The orbit data is extracted from the following two-line orbital elements,

1 41765U 16057A   18346.49170273  .00004524  00000-0  58554-4 0  9993
2 41765  42.7855 359.6956 0006691  44.8864 115.3342 15.60197711127866
Epoch (UTC): 12 December 2018 11:48:03
Eccentricity: 0.0006691
inclination: 42.7855°
perigee height: 382 km
apogee height: 391 km
right ascension of ascending node: 359.6956°
argument of perigee: 44.8864°
revolutions per day: 15.60197711
mean anomaly at epoch: 115.3342°
orbit number at epoch: 12786

The dashed part of the orbit path shows where the satellite is in the earth's shadow,  

DLR